| time (UTC) | temp F | wind direction | speed MPH | gust MPH | rain 1hr in | rain 24hr in | rain mn in | humidity % | barometer mb |
| 20260903080824 | 56 | 140 | 4.0 | 14.0 | 0.00 | 0.00 | 0.00 | 84 | 1007.9 |
| 20260903080321 | 56 | 111 | 6.0 | 11.0 | 0.00 | 0.00 | 0.00 | 85 | 1008.3 |
| 20260903075820 | 56 | 99 | 10.0 | 15.0 | 0.00 | 0.00 | 0.00 | 85 | 1007.9 |
| 20260903075315 | 56 | 173 | 4.0 | 15.0 | 0.00 | 0.00 | 0.00 | 85 | 1008.3 |
| 20260903074815 | 56 | 89 | 11.0 | 15.0 | 0.00 | 0.00 | 0.00 | 85 | 1008.3 |
| 20260903074310 | 56 | 184 | 7.0 | 11.0 | 0.00 | 0.00 | 0.00 | 85 | 1007.9 |
| 20260903073805 | 56 | 111 | 5.0 | 11.0 | 0.00 | 0.00 | 0.00 | 84 | 1007.9 |
| 20260903073300 | 56 | 128 | 2.0 | 4.0 | 0.00 | 0.00 | 0.00 | 85 | 1007.9 |
| 20260903072751 | 56 | 112 | 4.0 | 8.0 | 0.00 | 0.00 | 0.00 | 84 | 1007.9 |
| 20260903072247 | 56 | 109 | 3.0 | 7.0 | 0.00 | 0.00 | 0.00 | 84 | 1007.9 |
| 20260903071743 | 56 | 99 | 4.0 | 10.0 | 0.00 | 0.00 | 0.00 | 83 | 1007.9 |
| 20260903071239 | 56 | 144 | 2.0 | 4.0 | 0.00 | 0.00 | 0.00 | 83 | 1007.9 |
| 20260903070738 | 56 | 103 | 4.0 | 7.0 | 0.00 | 0.00 | 0.00 | 83 | 1007.9 |
| 20260903070234 | 56 | 152 | 2.0 | 7.0 | 0.00 | 0.00 | 0.00 | 83 | 1007.9 |
| 20260903065729 | 56 | 100 | 8.0 | 15.0 | 0.00 | 0.00 | 0.00 | 84 | 1007.9 |
| 20260903065228 | 56 | 164 | 4.0 | 8.0 | 0.00 | 0.00 | 0.00 | 84 | 1007.9 |
| 20260903064727 | 57 | 171 | 9.0 | 14.0 | 0.00 | 0.00 | 0.00 | 84 | 1007.9 |
| 20260903064223 | 57 | 107 | 4.0 | 10.0 | 0.00 | 0.00 | 0.00 | 84 | 1007.9 |
| 20260903063719 | 56 | 207 | 5.0 | 11.0 | 0.00 | 0.00 | 0.00 | 84 | 1007.9 |
| 20260903063213 | 56 | 115 | 4.0 | 10.0 | 0.00 | 0.00 | 0.00 | 86 | 1007.9 |
| 20260903062709 | 56 | 133 | 1.0 | 6.0 | 0.00 | 0.00 | 0.00 | 86 | 1007.9 |
| 20260903062203 | 56 | 214 | 3.0 | 6.0 | 0.00 | 0.00 | 0.00 | 86 | 1007.9 |
| 20260903061700 | 56 | 191 | 1.0 | 4.0 | 0.00 | 0.00 | 0.00 | 86 | 1007.6 |
| 20260903061158 | 56 | 196 | 5.0 | 7.0 | 0.00 | 0.00 | 0.00 | 86 | 1007.9 |
| 20260903060654 | 56 | 135 | 2.0 | 3.0 | 0.00 | 0.00 | 0.00 | 86 | 1007.9 |
| 20260903060149 | 56 | 111 | 2.0 | 4.0 | 0.00 | 0.00 | 0.00 | 86 | 1007.9 |
| 20260903055647 | 56 | 205 | 2.0 | 2.0 | 0.00 | 0.00 | 0.00 | 86 | 1007.9 |
| 20260903055145 | 57 | 128 | 0.0 | 2.0 | 0.00 | 0.00 | 0.00 | 85 | 1007.6 |
| 20260903054640 | 57 | 95 | 2.0 | 4.0 | 0.00 | 0.00 | 0.00 | 85 | 1007.9 |
| 20260903054136 | 57 | 174 | 3.0 | 6.0 | 0.00 | 0.00 | 0.00 | 85 | 1007.6 |
| 20260903053631 | 57 | 200 | 3.0 | 7.0 | 0.00 | 0.00 | 0.00 | 85 | 1007.6 |
| 20260903053126 | 57 | 133 | 2.0 | 13.0 | 0.00 | 0.00 | 0.00 | 85 | 1007.6 |
| 20260903052622 | 57 | 112 | 4.0 | 14.0 | 0.00 | 0.00 | 0.00 | 85 | 1007.6 |
| 20260903052118 | 57 | 164 | 7.0 | 13.0 | 0.00 | 0.00 | 0.00 | 85 | 1007.6 |
| 20260903051618 | 57 | 171 | 4.0 | 13.0 | 0.00 | 0.00 | 0.00 | 85 | 1007.6 |
| 20260903051114 | 57 | 182 | 6.0 | 9.0 | 0.00 | 0.00 | 0.00 | 85 | 1007.6 |
| 20260903050613 | 57 | 113 | 9.0 | 13.0 | 0.00 | 0.00 | 0.00 | 85 | 1007.9 |
| 20260903050108 | 57 | 141 | 2.0 | 6.0 | 0.00 | 0.00 | 0.00 | 84 | 1007.9 |
| 20260903045608 | 56 | 176 | 3.0 | 7.0 | 0.00 | 0.00 | 0.00 | 84 | 1007.6 |
| 20260903045104 | 56 | 174 | 5.0 | 6.0 | 0.00 | 0.00 | 0.00 | 84 | 1007.9 |
| 20260903044600 | 56 | 127 | 5.0 | 8.0 | 0.00 | 0.00 | 0.00 | 84 | 1007.6 |
| 20260903044055 | 57 | 195 | 2.0 | 6.0 | 0.00 | 0.00 | 0.00 | 83 | 1007.9 |
| 20260903043551 | 56 | 126 | 1.0 | 2.0 | 0.00 | 0.00 | 0.00 | 83 | 1007.6 |
| 20260903043050 | 57 | 125 | 2.0 | 6.0 | 0.00 | 0.00 | 0.00 | 83 | 1007.6 |
| 20260903042546 | 56 | 115 | 1.0 | 7.0 | 0.00 | 0.00 | 0.00 | 83 | 1007.6 |
| 20260903042041 | 56 | 172 | 3.0 | 4.0 | 0.00 | 0.00 | 0.00 | 83 | 1007.6 |
| 20260903041538 | 56 | 125 | 1.0 | 2.0 | 0.00 | 0.00 | 0.00 | 83 | 1007.6 |
| 20260903041033 | 56 | 116 | 0.0 | 1.0 | 0.00 | 0.00 | 0.00 | 82 | 1007.6 |
| 20260903040532 | 56 | 113 | 1.0 | 3.0 | 0.00 | 0.00 | 0.00 | 82 | 1007.6 |
| 20260903040029 | 56 | 119 | 0.0 | 1.0 | 0.00 | 0.00 | 0.00 | 82 | 1007.6 |
| 20260903035523 | 56 | 138 | 1.0 | 2.0 | 0.00 | 0.00 | 0.00 | 83 | 1007.3 |
| 20260903035019 | 57 | 96 | 1.0 | 1.0 | 0.00 | 0.00 | 0.00 | 82 | 1007.3 |
| 20260903034514 | 57 | 107 | 0.0 | 3.0 | 0.00 | 0.00 | 0.00 | 81 | 1007.3 |
| 20260903034008 | 57 | 115 | 1.0 | 1.0 | 0.00 | 0.00 | 0.00 | 80 | 1006.9 |
| 20260903033504 | 57 | 114 | 4.0 | 7.0 | 0.00 | 0.00 | 0.00 | 80 | 1006.9 |
| 20260903032958 | 57 | 192 | 1.0 | 2.0 | 0.00 | 0.00 | 0.00 | 80 | 1006.6 |
| 20260903032453 | 57 | 126 | 1.0 | 10.0 | 0.00 | 0.00 | 0.00 | 80 | 1006.6 |
| 20260903031948 | 57 | 122 | 2.0 | 8.0 | 0.00 | 0.00 | 0.00 | 81 | 1006.6 |
| 20260903031442 | 57 | 119 | 2.0 | 3.0 | 0.00 | 0.00 | 0.00 | 81 | 1006.6 |
| 20260903030932 | 57 | 149 | 3.0 | 6.0 | 0.00 | 0.00 | 0.00 | 81 | 1006.3 |
| 20260903030428 | 57 | 110 | 1.0 | 4.0 | 0.00 | 0.00 | 0.00 | 81 | 1006.3 |
| 20260903025924 | 58 | 98 | 1.0 | 3.0 | 0.00 | 0.00 | 0.00 | 81 | 1006.3 |
| 20260903025419 | 58 | 114 | 1.0 | 3.0 | 0.00 | 0.00 | 0.00 | 81 | 1006.3 |
| 20260903024915 | 58 | 141 | 1.0 | 4.0 | 0.00 | 0.00 | 0.00 | 81 | 1006.3 |
| 20260903024408 | 58 | 179 | 4.0 | 7.0 | 0.00 | 0.00 | 0.00 | 81 | 1005.9 |
| 20260903023903 | 58 | 135 | 2.0 | 4.0 | 0.00 | 0.00 | 0.00 | 81 | 1005.9 |
| 20260903023359 | 58 | 128 | 2.0 | 6.0 | 0.00 | 0.00 | 0.00 | 80 | 1005.6 |
| 20260903022854 | 59 | 87 | 3.0 | 7.0 | 0.00 | 0.00 | 0.00 | 80 | 1005.6 |
| 20260903022353 | 59 | 190 | 4.0 | 10.0 | 0.00 | 0.00 | 0.00 | 80 | 1005.2 |
| 20260903021852 | 59 | 19 | 3.0 | 6.0 | 0.00 | 0.00 | 0.00 | 80 | 1005.2 |
| 20260903021348 | 59 | 152 | 8.0 | 15.0 | 0.00 | 0.00 | 0.00 | 79 | 1005.2 |
| 20260903020847 | 59 | 118 | 5.0 | 8.0 | 0.00 | 0.00 | 0.00 | 79 | 1004.9 |
| 20260903020343 | 60 | 179 | 4.0 | 10.0 | 0.00 | 0.00 | 0.00 | 78 | 1005.2 |
| 20260903015837 | 59 | 158 | 5.0 | 21.0 | 0.00 | 0.00 | 0.00 | 78 | 1004.9 |
| 20260903015333 | 59 | 149 | 6.0 | 8.0 | 0.00 | 0.00 | 0.00 | 80 | 1004.9 |
| 20260903014828 | 59 | 166 | 6.0 | 13.0 | 0.00 | 0.00 | 0.00 | 80 | 1004.9 |
| 20260903014327 | 59 | 219 | 5.0 | 19.0 | 0.00 | 0.00 | 0.00 | 81 | 1004.9 |
| 20260903013817 | 59 | 152 | 4.0 | 11.0 | 0.00 | 0.00 | 0.00 | 82 | 1004.6 |
| 20260903013316 | 59 | 131 | 5.0 | 11.0 | 0.00 | 0.00 | 0.00 | 82 | 1004.9 |
| 20260903012815 | 59 | 105 | 5.0 | 21.0 | 0.00 | 0.00 | 0.00 | 81 | 1004.9 |
| 20260903012309 | 59 | 157 | 9.0 | 16.0 | 0.00 | 0.00 | 0.00 | 82 | 1004.6 |
| 20260903011803 | 59 | 103 | 8.0 | 14.0 | 0.00 | 0.00 | 0.00 | 82 | 1004.6 |
| 20260903011303 | 59 | 82 | 8.0 | 18.0 | 0.00 | 0.00 | 0.00 | 82 | 1004.6 |
| 20260903010758 | 59 | 182 | 10.0 | 16.0 | 0.00 | 0.00 | 0.00 | 83 | 1004.6 |
| 20260903010254 | 59 | 144 | 9.0 | 11.0 | 0.00 | 0.00 | 0.00 | 83 | 1004.6 |
| 20260903005752 | 59 | 213 | 9.0 | 17.0 | 0.00 | 0.00 | 0.00 | 82 | 1004.9 |
| 20260903005247 | 59 | 174 | 8.0 | 16.0 | 0.00 | 0.00 | 0.00 | 82 | 1004.9 |
| 20260903004743 | 59 | 110 | 9.0 | 15.0 | 0.00 | 0.00 | 0.00 | 82 | 1004.9 |
| 20260903004238 | 58 | 153 | 8.0 | 17.0 | 0.00 | 0.00 | 0.00 | 83 | 1004.9 |
| 20260903003734 | 58 | 247 | 9.0 | 16.0 | 0.00 | 0.00 | 0.00 | 84 | 1004.9 |
| 20260903003229 | 58 | 103 | 6.0 | 14.0 | 0.00 | 0.00 | 0.00 | 85 | 1004.9 |
| 20260903002723 | 58 | 164 | 11.0 | 16.0 | 0.00 | 0.00 | 0.00 | 85 | 1004.9 |
| 20260903002218 | 57 | 123 | 6.0 | 19.0 | 0.00 | 0.00 | 0.00 | 86 | 1004.6 |
| 20260903001713 | 58 | 126 | 8.0 | 19.0 | 0.00 | 0.00 | 0.00 | 87 | 1004.9 |
| 20260903001207 | 58 | 161 | 4.0 | 11.0 | 0.00 | 0.00 | 0.00 | 86 | 1004.6 |
| 20260903000702 | 58 | 104 | 3.0 | 14.0 | 0.00 | 0.00 | 0.00 | 85 | 1004.9 |
| 20260903000204 | 58 | 128 | 10.0 | 14.0 | 0.00 | 0.00 | 0.00 | 84 | 1004.9 |
| 20260902235700 | 58 | 157 | 5.0 | 14.0 | 0.00 | 0.00 | 0.00 | 85 | 1004.6 |
| 20260902235156 | 58 | 232 | 10.0 | 15.0 | 0.00 | 0.00 | 0.00 | 86 | 1004.6 |
| 20260902234655 | 58 | 215 | 9.0 | 15.0 | 0.00 | 0.00 | 0.00 | 86 | 1004.6 |
| 20260902234154 | 58 | 56 | 11.0 | 19.0 | 0.00 | 0.00 | 0.00 | 86 | 1004.9 |
| 20260902233649 | 58 | 160 | 3.0 | 13.0 | 0.00 | 0.00 | 0.00 | 86 | 1004.6 |
| 20260902233149 | 58 | 191 | 9.0 | 14.0 | 0.00 | 0.00 | 0.00 | 87 | 1004.9 |
| 20260902232648 | 57 | 113 | 4.0 | 13.0 | 0.00 | 0.00 | 0.00 | 87 | 1004.9 |
| 20260902232147 | 57 | 204 | 10.0 | 18.0 | 0.00 | 0.00 | 0.00 | 87 | 1005.2 |
| 20260902231642 | 57 | 184 | 9.0 | 15.0 | 0.00 | 0.00 | 0.00 | 87 | 1004.9 |
| 20260902231137 | 57 | 161 | 13.0 | 18.0 | 0.00 | 0.00 | 0.00 | 87 | 1005.2 |
| 20260902230632 | 57 | 157 | 15.0 | 21.0 | 0.00 | 0.00 | 0.00 | 86 | 1005.2 |
| 20260902230130 | 58 | 178 | 13.0 | 17.0 | 0.00 | 0.00 | 0.00 | 85 | 1005.2 |
| 20260902225626 | 58 | 148 | 5.0 | 16.0 | 0.00 | 0.00 | 0.00 | 84 | 1005.2 |
| 20260902225125 | 59 | 124 | 9.0 | 18.0 | 0.00 | 0.00 | 0.00 | 83 | 1004.9 |
| 20260902224623 | 59 | 158 | 6.0 | 14.0 | 0.00 | 0.00 | 0.00 | 81 | 1005.2 |
| 20260902224120 | 59 | 206 | 10.0 | 19.0 | 0.00 | 0.00 | 0.00 | 80 | 1005.2 |
| 20260902223616 | 60 | 106 | 6.0 | 21.0 | 0.00 | 0.00 | 0.00 | 79 | 1005.2 |
| 20260902223115 | 61 | 218 | 2.0 | 11.0 | 0.00 | 0.00 | 0.00 | 78 | 1005.2 |
| 20260902222614 | 61 | 205 | 4.0 | 18.0 | 0.00 | 0.00 | 0.00 | 76 | 1005.2 |
| 20260902222113 | 61 | 115 | 6.0 | 18.0 | 0.00 | 0.00 | 0.00 | 75 | 1005.2 |
| 20260902221607 | 62 | 207 | 3.0 | 15.0 | 0.00 | 0.00 | 0.00 | 74 | 1005.2 |
| 20260902221102 | 62 | 130 | 6.0 | 19.0 | 0.00 | 0.00 | 0.00 | 74 | 1005.2 |
| 20260902220557 | 62 | 147 | 13.0 | 32.0 | 0.00 | 0.00 | 0.00 | 74 | 1005.2 |
| 20260902220052 | 62 | 241 | 14.0 | 22.0 | 0.00 | 0.00 | 0.00 | 75 | 1005.2 |
| 20260902215548 | 62 | 218 | 10.0 | 18.0 | 0.00 | 0.00 | 0.00 | 74 | 1004.9 |
| 20260902215043 | 62 | 192 | 9.0 | 13.0 | 0.00 | 0.00 | 0.00 | 75 | 1005.2 |
| 20260902214538 | 63 | 203 | 14.0 | 21.0 | 0.00 | 0.00 | 0.00 | 74 | 1005.2 |
| 20260902214037 | 63 | 151 | 6.0 | 18.0 | 0.00 | 0.00 | 0.00 | 73 | 1005.2 |
| 20260902213533 | 63 | 190 | 1.0 | 19.0 | 0.00 | 0.00 | 0.00 | 75 | 1005.2 |
| 20260902213032 | 63 | 119 | 11.0 | 19.0 | 0.00 | 0.00 | 0.00 | 75 | 1005.6 |
| 20260902212528 | 63 | 131 | 6.0 | 11.0 | 0.00 | 0.00 | 0.00 | 76 | 1005.2 |
| 20260902212024 | 63 | 147 | 12.0 | 24.0 | 0.00 | 0.00 | 0.00 | 77 | 1005.2 |
| 20260902211520 | 64 | 108 | 11.0 | 18.0 | 0.00 | 0.00 | 0.00 | 75 | 1005.2 |
| 20260902211015 | 65 | 117 | 7.0 | 13.0 | 0.00 | 0.00 | 0.00 | 72 | 1005.6 |
| 20260902210514 | 64 | 26 | 6.0 | 16.0 | 0.00 | 0.00 | 0.00 | 72 | 1005.6 |
| 20260902210014 | 64 | 193 | 6.0 | 9.0 | 0.00 | 0.00 | 0.00 | 72 | 1005.2 |
| 20260902205508 | 64 | 104 | 5.0 | 14.0 | 0.00 | 0.00 | 0.00 | 73 | 1005.2 |
| 20260902205004 | 64 | 110 | 6.0 | 18.0 | 0.00 | 0.00 | 0.00 | 75 | 1005.6 |
| 20260902204504 | 64 | 179 | 9.0 | 16.0 | 0.00 | 0.00 | 0.00 | 74 | 1005.2 |
| 20260902203959 | 63 | 98 | 6.0 | 15.0 | 0.00 | 0.00 | 0.00 | 76 | 1005.6 |
| 20260902203454 | 63 | 153 | 10.0 | 11.0 | 0.00 | 0.00 | 0.00 | 76 | 1005.6 |
| 20260902202952 | 63 | 119 | 7.0 | 10.0 | 0.00 | 0.00 | 0.00 | 77 | 1005.6 |
| 20260902202448 | 62 | 178 | 6.0 | 14.0 | 0.00 | 0.00 | 0.00 | 78 | 1005.9 |
| 20260902201945 | 63 | 129 | 14.0 | 18.0 | 0.00 | 0.00 | 0.00 | 76 | 1005.6 |
| 20260902201440 | 64 | 167 | 5.0 | 14.0 | 0.00 | 0.00 | 0.00 | 75 | 1005.9 |
| 20260902200940 | 64 | 211 | 11.0 | 17.0 | 0.00 | 0.00 | 0.00 | 72 | 1005.9 |
| 20260902200435 | 66 | 150 | 12.0 | 17.0 | 0.00 | 0.00 | 0.00 | 67 | 1005.9 |
| 20260902195930 | 66 | 233 | 6.0 | 25.0 | 0.00 | 0.00 | 0.00 | 66 | 1005.6 |
| 20260902195426 | 66 | 156 | 10.0 | 24.0 | 0.00 | 0.00 | 0.00 | 65 | 1005.6 |
| 20260902194920 | 66 | 142 | 9.0 | 16.0 | 0.00 | 0.00 | 0.00 | 66 | 1005.6 |
| 20260902194419 | 66 | 191 | 7.0 | 14.0 | 0.00 | 0.00 | 0.00 | 67 | 1005.6 |
| 20260902193915 | 66 | 172 | 9.0 | 16.0 | 0.00 | 0.00 | 0.00 | 66 | 1005.6 |
| 20260902193411 | 66 | 142 | 5.0 | 14.0 | 0.00 | 0.00 | 0.00 | 66 | 1005.6 |
| 20260902192910 | 66 | 171 | 10.0 | 19.0 | 0.00 | 0.00 | 0.00 | 67 | 1005.6 |
| 20260902192409 | 67 | 151 | 21.0 | 26.0 | 0.00 | 0.00 | 0.00 | 66 | 1005.6 |
| 20260902191908 | 66 | 104 | 9.0 | 25.0 | 0.00 | 0.00 | 0.00 | 66 | 1005.6 |
| 20260902191404 | 64 | 168 | 5.0 | 17.0 | 0.00 | 0.00 | 0.00 | 69 | 1005.6 |
| 20260902190858 | 65 | 188 | 5.0 | 21.0 | 0.00 | 0.00 | 0.00 | 69 | 1005.6 |
| 20260902190353 | 65 | 201 | 9.0 | 15.0 | 0.00 | 0.00 | 0.00 | 69 | 1005.9 |
| 20260902185849 | 63 | 178 | 14.0 | 19.0 | 0.00 | 0.00 | 0.00 | 71 | 1005.6 |
| 20260902185345 | 63 | 175 | 8.0 | 18.0 | 0.00 | 0.00 | 0.00 | 72 | 1005.9 |
| 20260902184840 | 63 | 87 | 8.0 | 14.0 | 0.00 | 0.00 | 0.00 | 72 | 1005.9 |
| 20260902184335 | 62 | 204 | 6.0 | 14.0 | 0.00 | 0.00 | 0.00 | 74 | 1006.3 |
| 20260902183830 | 62 | 132 | 4.0 | 13.0 | 0.00 | 0.00 | 0.00 | 74 | 1006.3 |
| 20260902183327 | 62 | 146 | 5.0 | 8.0 | 0.00 | 0.00 | 0.00 | 74 | 1006.3 |
| 20260902182822 | 62 | 129 | 8.0 | 15.0 | 0.00 | 0.00 | 0.00 | 74 | 1006.3 |
| 20260902182319 | 62 | 147 | 9.0 | 18.0 | 0.00 | 0.00 | 0.00 | 73 | 1006.3 |
| 20260902181815 | 62 | 160 | 11.0 | 15.0 | 0.00 | 0.00 | 0.00 | 75 | 1006.6 |
| 20260902181310 | 62 | 196 | 8.0 | 13.0 | 0.00 | 0.00 | 0.00 | 75 | 1006.6 |
| 20260902180804 | 62 | 153 | 6.0 | 14.0 | 0.00 | 0.00 | 0.00 | 75 | 1006.6 |
| 20260902180300 | 62 | 108 | 4.0 | 15.0 | 0.00 | 0.00 | 0.00 | 75 | 1006.6 |
| 20260902175755 | 62 | 209 | 7.0 | 14.0 | 0.00 | 0.00 | 0.00 | 75 | 1006.6 |
| 20260902175251 | 62 | 182 | 8.0 | 11.0 | 0.00 | 0.00 | 0.00 | 76 | 1006.9 |
| 20260902174746 | 61 | 145 | 6.0 | 13.0 | 0.00 | 0.00 | 0.00 | 77 | 1006.9 |
| 20260902174242 | 61 | 163 | 7.0 | 11.0 | 0.00 | 0.00 | 0.00 | 77 | 1006.9 |
| 20260902173737 | 61 | 161 | 9.0 | 14.0 | 0.00 | 0.00 | 0.00 | 76 | 1006.6 |
| 20260902173237 | 61 | 184 | 4.0 | 11.0 | 0.00 | 0.00 | 0.00 | 77 | 1006.9 |
| 20260902172731 | 61 | 137 | 6.0 | 10.0 | 0.00 | 0.00 | 0.00 | 77 | 1006.9 |
| 20260902172226 | 61 | 179 | 9.0 | 11.0 | 0.00 | 0.00 | 0.00 | 77 | 1006.9 |
| 20260902171721 | 61 | 170 | 11.0 | 17.0 | 0.00 | 0.00 | 0.00 | 77 | 1006.9 |
| 20260902171216 | 61 | 88 | 2.0 | 17.0 | 0.00 | 0.00 | 0.00 | 77 | 1006.9 |
| 20260902170712 | 61 | 86 | 7.0 | 17.0 | 0.00 | 0.00 | 0.00 | 77 | 1006.9 |
| 20260902170208 | 61 | 121 | 8.0 | 17.0 | 0.00 | 0.00 | 0.00 | 77 | 1006.9 |
| 20260902165702 | 61 | 169 | 8.0 | 14.0 | 0.00 | 0.00 | 0.00 | 76 | 1006.9 |
| 20260902165156 | 62 | 124 | 7.0 | 17.0 | 0.00 | 0.00 | 0.00 | 75 | 1006.9 |
| 20260902164652 | 62 | 132 | 4.0 | 13.0 | 0.00 | 0.00 | 0.00 | 75 | 1006.9 |
| 20260902164150 | 62 | 185 | 4.0 | 15.0 | 0.00 | 0.00 | 0.00 | 76 | 1006.9 |
| 20260902163646 | 62 | 193 | 8.0 | 13.0 | 0.00 | 0.00 | 0.00 | 75 | 1006.9 |
| 20260902163145 | 62 | 173 | 5.0 | 19.0 | 0.00 | 0.00 | 0.00 | 75 | 1006.9 |
| 20260902162644 | 62 | 99 | 8.0 | 18.0 | 0.00 | 0.00 | 0.00 | 75 | 1006.9 |
| 20260902162139 | 61 | 139 | 10.0 | 15.0 | 0.00 | 0.00 | 0.00 | 76 | 1006.9 |
| 20260902161634 | 62 | 39 | 7.0 | 14.0 | 0.00 | 0.00 | 0.00 | 75 | 1006.9 |
| 20260902161130 | 62 | 63 | 4.0 | 15.0 | 0.00 | 0.00 | 0.00 | 75 | 1006.9 |
| 20260902160626 | 61 | 126 | 9.0 | 13.0 | 0.00 | 0.00 | 0.00 | 76 | 1007.3 |
| 20260902160120 | 61 | 196 | 10.0 | 15.0 | 0.00 | 0.00 | 0.00 | 76 | 1006.9 |
| 20260902155613 | 62 | 134 | 6.0 | 14.0 | 0.00 | 0.00 | 0.00 | 75 | 1007.3 |
| 20260902155112 | 62 | 106 | 7.0 | 22.0 | 0.00 | 0.00 | 0.00 | 76 | 1006.9 |
| 20260902154607 | 61 | 180 | 11.0 | 17.0 | 0.00 | 0.00 | 0.00 | 77 | 1006.9 |
| 20260902154103 | 61 | 133 | 6.0 | 26.0 | 0.00 | 0.00 | 0.00 | 77 | 1006.9 |
| 20260902153601 | 60 | 171 | 16.0 | 32.0 | 0.00 | 0.00 | 0.00 | 78 | 1006.6 |
| 20260902153057 | 60 | 188 | 5.0 | 19.0 | 0.00 | 0.00 | 0.00 | 79 | 1006.9 |
| 20260902152553 | 60 | 160 | 7.0 | 23.0 | 0.00 | 0.00 | 0.00 | 79 | 1006.9 |
| 20260902152048 | 60 | 167 | 10.0 | 18.0 | 0.00 | 0.00 | 0.00 | 80 | 1006.9 |
| 20260902151544 | 60 | 172 | 10.0 | 16.0 | 0.00 | 0.00 | 0.00 | 80 | 1006.9 |
| 20260902151043 | 60 | 118 | 7.0 | 14.0 | 0.00 | 0.00 | 0.00 | 81 | 1007.3 |
| 20260902150538 | 59 | 191 | 11.0 | 14.0 | 0.00 | 0.00 | 0.00 | 81 | 1007.3 |
| 20260902150034 | 59 | 91 | 5.0 | 9.0 | 0.00 | 0.00 | 0.00 | 81 | 1007.3 |
| 20260902145528 | 59 | 119 | 3.0 | 16.0 | 0.00 | 0.00 | 0.00 | 82 | 1007.3 |
| 20260902145022 | 59 | 118 | 11.0 | 21.0 | 0.00 | 0.00 | 0.00 | 82 | 1007.6 |
| 20260902144519 | 59 | 172 | 5.0 | 15.0 | 0.00 | 0.00 | 0.00 | 82 | 1007.3 |
| 20260902144014 | 59 | 100 | 7.0 | 13.0 | 0.00 | 0.00 | 0.00 | 81 | 1007.6 |
| 20260902143509 | 59 | 201 | 8.0 | 17.0 | 0.00 | 0.00 | 0.00 | 81 | 1007.3 |
| 20260902143005 | 59 | 162 | 4.0 | 15.0 | 0.00 | 0.00 | 0.00 | 82 | 1007.6 |
| 20260902142500 | 59 | 96 | 6.0 | 15.0 | 0.00 | 0.00 | 0.00 | 83 | 1007.6 |
| 20260902141955 | 59 | 164 | 9.0 | 11.0 | 0.00 | 0.00 | 0.00 | 83 | 1007.6 |
| 20260902141449 | 59 | 178 | 2.0 | 16.0 | 0.00 | 0.00 | 0.00 | 83 | 1007.6 |
| 20260902140949 | 58 | 292 | 9.0 | 18.0 | 0.00 | 0.00 | 0.00 | 83 | 1007.6 |
| 20260902140445 | 58 | 181 | 5.0 | 17.0 | 0.00 | 0.00 | 0.00 | 84 | 1007.6 |
| 20260902135939 | 58 | 141 | 5.0 | 17.0 | 0.00 | 0.00 | 0.00 | 84 | 1007.6 |
| 20260902135435 | 58 | 166 | 11.0 | 14.0 | 0.00 | 0.00 | 0.00 | 84 | 1007.6 |
| 20260902134933 | 58 | 195 | 9.0 | 13.0 | 0.00 | 0.00 | 0.00 | 85 | 1007.9 |
| 20260902134430 | 58 | 141 | 5.0 | 14.0 | 0.00 | 0.00 | 0.00 | 85 | 1007.6 |
| 20260902133924 | 58 | 165 | 10.0 | 18.0 | 0.00 | 0.00 | 0.00 | 85 | 1007.6 |
| 20260902133419 | 58 | 148 | 9.0 | 23.0 | 0.00 | 0.00 | 0.00 | 85 | 1007.6 |
| 20260902132914 | 58 | 169 | 13.0 | 23.0 | 0.00 | 0.00 | 0.00 | 85 | 1007.6 |
| 20260902132409 | 58 | 219 | 9.0 | 23.0 | 0.00 | 0.00 | 0.00 | 84 | 1007.6 |
| 20260902131904 | 58 | 142 | 6.0 | 11.0 | 0.00 | 0.00 | 0.00 | 85 | 1007.6 |
| 20260902131401 | 58 | 128 | 8.0 | 21.0 | 0.00 | 0.00 | 0.00 | 85 | 1007.6 |
| 20260902130900 | 58 | 151 | 11.0 | 19.0 | 0.00 | 0.00 | 0.00 | 85 | 1007.6 |
| 20260902130356 | 58 | 97 | 11.0 | 18.0 | 0.00 | 0.00 | 0.00 | 85 | 1007.3 |
| 20260902125850 | 58 | 193 | 3.0 | 14.0 | 0.00 | 0.00 | 0.00 | 86 | 1007.9 |
| 20260902125347 | 58 | 158 | 9.0 | 16.0 | 0.00 | 0.00 | 0.00 | 86 | 1007.6 |
| 20260902124843 | 58 | 159 | 10.0 | 15.0 | 0.00 | 0.00 | 0.00 | 85 | 1007.6 |
| 20260902124339 | 58 | 170 | 9.0 | 18.0 | 0.00 | 0.00 | 0.00 | 85 | 1007.6 |
| 20260902123833 | 58 | 49 | 9.0 | 14.0 | 0.00 | 0.00 | 0.00 | 85 | 1007.6 |
| 20260902123330 | 58 | 165 | 7.0 | 10.0 | 0.00 | 0.00 | 0.00 | 84 | 1007.6 |
| 20260902122828 | 58 | 180 | 8.0 | 11.0 | 0.00 | 0.00 | 0.00 | 83 | 1007.6 |
| 20260902122325 | 58 | 177 | 6.0 | 15.0 | 0.00 | 0.00 | 0.00 | 82 | 1007.9 |
| 20260902121824 | 59 | 182 | 3.0 | 8.0 | 0.00 | 0.00 | 0.00 | 82 | 1007.9 |
| 20260902121319 | 59 | 144 | 4.0 | 6.0 | 0.00 | 0.00 | 0.00 | 82 | 1007.9 |
| 20260902120815 | 58 | 101 | 7.0 | 14.0 | 0.00 | 0.00 | 0.00 | 82 | 1007.9 |
| 20260902120311 | 58 | 155 | 6.0 | 13.0 | 0.00 | 0.00 | 0.00 | 84 | 1007.6 |
| 20260902115805 | 57 | 116 | 5.0 | 7.0 | 0.00 | 0.00 | 0.00 | 84 | 1007.9 |
| 20260902115301 | 58 | 174 | 3.0 | 11.0 | 0.00 | 0.00 | 0.00 | 84 | 1007.9 |
| 20260902114757 | 58 | 121 | 4.0 | 8.0 | 0.00 | 0.00 | 0.00 | 84 | 1007.9 |
| 20260902114253 | 58 | 155 | 6.0 | 8.0 | 0.00 | 0.00 | 0.00 | 83 | 1007.9 |
| 20260902113747 | 58 | 182 | 6.0 | 10.0 | 0.00 | 0.00 | 0.00 | 82 | 1007.9 |
| 20260902113243 | 58 | 83 | 7.0 | 10.0 | 0.00 | 0.00 | 0.00 | 82 | 1008.3 |
| 20260902112742 | 58 | 200 | 6.0 | 8.0 | 0.00 | 0.00 | 0.00 | 82 | 1008.3 |
| 20260902112239 | 58 | 117 | 3.0 | 10.0 | 0.00 | 0.00 | 0.00 | 82 | 1008.3 |
| 20260902111734 | 58 | 164 | 3.0 | 10.0 | 0.00 | 0.00 | 0.00 | 82 | 1008.6 |
| 20260902111231 | 58 | 210 | 4.0 | 7.0 | 0.00 | 0.00 | 0.00 | 82 | 1008.6 |
| 20260902110726 | 58 | 179 | 3.0 | 7.0 | 0.00 | 0.00 | 0.00 | 82 | 1008.6 |
| 20260902110222 | 58 | 151 | 3.0 | 9.0 | 0.00 | 0.00 | 0.00 | 81 | 1009.0 |
| 20260902105721 | 58 | 78 | 4.0 | 8.0 | 0.00 | 0.00 | 0.00 | 81 | 1009.0 |
| 20260902105217 | 58 | 114 | 4.0 | 4.0 | 0.00 | 0.00 | 0.00 | 82 | 1008.6 |
| 20260902104712 | 58 | 160 | 3.0 | 9.0 | 0.00 | 0.00 | 0.00 | 81 | 1009.0 |
| 20260902104208 | 58 | 112 | 1.0 | 8.0 | 0.00 | 0.00 | 0.00 | 81 | 1009.0 |
| 20260902103707 | 59 | 137 | 6.0 | 7.0 | 0.00 | 0.00 | 0.00 | 81 | 1009.0 |
| 20260902103202 | 58 | 163 | 2.0 | 6.0 | 0.00 | 0.00 | 0.00 | 80 | 1009.0 |
| 20260902102658 | 59 | 124 | 6.0 | 9.0 | 0.00 | 0.00 | 0.00 | 80 | 1009.0 |
| 20260902102155 | 59 | 122 | 6.0 | 9.0 | 0.00 | 0.00 | 0.00 | 80 | 1009.0 |
| 20260902101650 | 59 | 151 | 5.0 | 7.0 | 0.00 | 0.00 | 0.00 | 80 | 1009.0 |
| 20260902101150 | 59 | 135 | 3.0 | 6.0 | 0.00 | 0.00 | 0.00 | 79 | 1009.0 |
| 20260902100644 | 59 | 106 | 3.0 | 7.0 | 0.00 | 0.00 | 0.00 | 78 | 1009.0 |
| 20260902100139 | 59 | 133 | 5.0 | 7.0 | 0.00 | 0.00 | 0.00 | 79 | 1008.6 |
| 20260902095638 | 58 | 113 | 2.0 | 6.0 | 0.00 | 0.00 | 0.00 | 80 | 1009.0 |
| 20260902095138 | 58 | 83 | 4.0 | 6.0 | 0.00 | 0.00 | 0.00 | 81 | 1009.0 |
| 20260902094633 | 57 | 134 | 2.0 | 3.0 | 0.00 | 0.00 | 0.00 | 82 | 1009.0 |
| 20260902094129 | 57 | 135 | 0.0 | 0.0 | 0.00 | 0.00 | 0.00 | 82 | 1009.0 |
| 20260902093623 | 57 | 117 | 2.0 | 3.0 | 0.00 | 0.00 | 0.00 | 82 | 1009.3 |
| 20260902093112 | 57 | 106 | 1.0 | 3.0 | 0.00 | 0.00 | 0.00 | 82 | 1009.3 |
| 20260902092607 | 57 | 152 | 2.0 | 4.0 | 0.00 | 0.00 | 0.00 | 83 | 1009.0 |
| 20260902092102 | 57 | 126 | 2.0 | 4.0 | 0.00 | 0.00 | 0.00 | 84 | 1009.3 |
| 20260902091557 | 57 | 135 | 1.0 | 3.0 | 0.00 | 0.00 | 0.00 | 84 | 1009.3 |
| 20260902091053 | 58 | 124 | 2.0 | 4.0 | 0.00 | 0.00 | 0.00 | 84 | 1009.3 |
| 20260902090549 | 58 | 157 | 3.0 | 3.0 | 0.00 | 0.00 | 0.00 | 84 | 1009.6 |
| 20260902090048 | 58 | 174 | 1.0 | 2.0 | 0.00 | 0.00 | 0.00 | 83 | 1009.6 |
| 20260902085548 | 58 | 176 | 2.0 | 7.0 | 0.00 | 0.00 | 0.00 | 83 | 1009.6 |
| 20260902085043 | 58 | 112 | 1.0 | 6.0 | 0.00 | 0.00 | 0.00 | 83 | 1009.6 |
| 20260902084539 | 58 | 118 | 0.0 | 3.0 | 0.00 | 0.00 | 0.00 | 84 | 1009.6 |
| 20260902084034 | 57 | 184 | 3.0 | 8.0 | 0.00 | 0.00 | 0.00 | 85 | 1009.6 |
| 20260902083524 | 57 | 121 | 3.0 | 8.0 | 0.00 | 0.00 | 0.00 | 88 | 1010.0 |
| 20260902083019 | 56 | 184 | 3.0 | 6.0 | 0.00 | 0.00 | 0.00 | 88 | 1009.6 |
| 20260902082515 | 56 | 101 | 1.0 | 3.0 | 0.00 | 0.00 | 0.00 | 89 | 1010.0 |
| 20260902082011 | 56 | 116 | 2.0 | 4.0 | 0.00 | 0.00 | 0.00 | 89 | 1010.0 |
| 20260902081507 | 56 | 118 | 2.0 | 4.0 | 0.00 | 0.00 | 0.00 | 89 | 1010.0 |